[[{"header":{"parameterUnit":"m.s-1","parameterCategory":1,"la1":30.2991,"la2":30.254,"lo1":-89.0895,"lo2":-89.0444,"dy":0.0017,"dx":0.0017,"nx":28,"ny":28,"refTime":"2024-04-10T09:00:00:Z","depth":0,"parameterNumber":2,"parameterNumberName":"U-component_of_WINDS"},"data":[0,0,0,0,0,0,0,0,0,0,0,0,0,0,0,0,0,0,0,0,0,0,0,0,0,0,0,0,0,0,0,0,0,0,0,0,0,0,0,0,0,0,0,0,0,0,0,0,0,0,0,0,0,0,0,0,0,0,-6.4966,-6.4968,0,-6.5108,-6.5109,-6.5111,-6.5145,-6.5144,-6.5143,-6.5143,-6.5282,-6.5287,-6.5291,0,0,0,0,0,0,0,0,0,0,0,0,0,-6.4721,-6.4725,-6.4966,-6.4968,-6.497,-6.5107,-6.5109,-6.5111,-6.5145,-6.5144,-6.5143,-6.5142,-6.5281,-6.5286,-6.5292,0,0,0,0,0,0,0,0,0,0,0,0,0,-6.4841,-6.4727,-6.4966,-6.5003,-6.5008,-6.5107,-6.5109,-6.5112,-6.5146,-6.5144,-6.5143,-6.5142,-6.5279,-6.5286,-6.5293,-6.5363,0,0,-6.5314,-6.5317,0,0,0,0,0,0,0,0,-6.4834,-6.485,-6.4996,-6.5001,-6.5006,-6.5108,-6.5074,-6.5196,-6.5146,-6.5093,-6.5143,-6.5141,-6.5225,-6.5236,-6.5266,-6.5369,-6.5375,-6.5314,-6.5318,-6.5321,-6.5323,0,0,0,0,0,0,0,-6.4826,-6.4844,-6.5022,-6.4998,-6.5004,-6.5012,-6.5027,-6.5098,-6.5165,-6.5098,-6.5101,-6.5117,-6.5228,-6.5259,-6.5269,-6.5377,-6.5314,-6.532,-6.5324,-6.5327,-6.5545,-6.5547,0,0,0,0,0,0,-6.4812,-6.4837,-6.5017,-6.5026,-6.4915,-6.5017,-6.5035,-6.5076,-6.5164,-6.5177,-6.5118,-6.5118,-6.5248,-6.5261,-6.5274,-6.5361,-6.5321,-6.5328,-6.5332,-6.5543,-6.5545,-6.5547,0,0,0,0,0,0,-6.4806,-6.4828,-6.5012,-6.4933,-6.4957,-6.5023,-6.5069,-6.508,-6.5111,-6.518,-6.5192,-6.5138,-6.5247,-6.5265,-6.5341,-6.5367,-6.5331,-6.5337,-6.5541,-6.5544,-6.5546,-6.5536,0,0,0,0,0,0,-6.4799,-6.4825,-6.4853,-6.4933,-6.4961,-6.5077,-6.5071,-6.5084,-6.5124,-6.5125,-6.5202,-6.5213,-6.5248,-6.533,-6.5348,-6.5375,-6.5342,-6.5539,-6.5543,-6.5546,-6.5534,-6.5538,-6.5541,0,0,0,0,0,-6.479,-6.4844,-6.4855,-6.4876,-6.4997,-6.5078,-6.5094,-6.5134,-6.5126,-6.5154,-6.5198,-6.5211,-6.5362,-6.5338,-6.5358,-6.5388,-6.5538,-6.5542,-6.5545,-6.5533,-6.5537,-6.5541,0,0,0,0,0,0,-6.4763,-6.4855,-6.4868,-6.4949,-6.5006,-6.5084,-6.512,-6.5137,-6.5196,-6.5195,-6.5241,-6.5258,-6.5331,-6.5368,-6.5339,-6.546,-6.545,-6.5457,-6.5433,-6.5438,-6.5441,-6.543,-6.5348,0,0,0,0,0,-6.4767,-6.4827,-6.4903,-6.4967,-6.4995,-6.5053,-6.509,-6.5116,-6.5176,-6.52,-6.5249,-6.5306,-6.5366,-6.5404,-6.5464,-6.5541,-6.5557,-6.5572,-6.5575,-6.5577,-6.5583,-6.5625,-6.5632,-6.556,-6.556,-6.556,0,0,-6.4775,-6.4832,-6.4866,-6.4963,-6.501,-6.5069,-6.5073,-6.5135,-6.5179,-6.5209,-6.5283,-6.5322,-6.5388,-6.5465,-6.5501,-6.5498,-6.5607,-6.5582,-6.5583,-6.5588,-6.563,-6.5637,-6.5643,-6.5562,-6.5562,-6.5561,0,0,-6.4818,-6.4869,-6.4928,-6.4975,-6.5048,-6.5086,-6.51,-6.5177,-6.5204,-6.5281,-6.5304,-6.5357,-6.546,-6.5506,-6.5542,-6.5606,-6.5619,-6.5624,-6.564,-6.5681,-6.5687,-6.5692,-6.5713,-6.5721,-6.563,-6.563,-6.563,0,-6.4818,-6.491,-6.4955,-6.5017,-6.5058,-6.5091,-6.5149,-6.5193,-6.528,-6.5307,-6.5303,-6.5433,-6.548,-6.5568,-6.5583,-6.5613,-6.5629,-6.5614,-6.5683,-6.5689,-6.5694,-6.5715,-6.5723,-6.563,-6.563,-6.563,-6.563,0,-6.4905,-6.4968,-6.5007,-6.5092,-6.5138,-6.5198,-6.5251,-6.5292,-6.5315,-6.5354,-6.5431,-6.5489,-6.556,-6.5584,-6.5606,-6.5675,-6.567,-6.5674,-6.5664,-6.57,-6.572,-6.5729,-6.563,-6.563,-6.563,-6.563,0,0,-6.4933,-6.5044,-6.5057,-6.5096,-6.5179,-6.5228,-6.529,-6.5362,-6.5395,-6.5455,-6.5506,-6.5594,-6.5598,-6.564,-6.5668,-6.5705,-6.575,-6.5704,-6.5706,-6.5709,-6.5828,-6.5823,-6.5831,-6.5761,-6.5763,-6.5764,-6.5821,0,-6.4985,-6.5097,-6.5141,-6.5231,-6.5289,-6.5322,-6.5376,-6.5432,-6.547,-6.5524,-6.5566,-6.5627,-6.5629,-6.5654,-6.5692,-6.5736,-6.5774,-6.5733,-6.5807,-6.5809,-6.5787,-6.5842,-6.5837,-6.5888,-6.583,-6.5831,-6.5832,0,-6.5061,-6.5123,-6.522,-6.5296,-6.5322,-6.5369,-6.5439,-6.5491,-6.5555,-6.558,-6.5628,-6.5655,-6.5719,-6.5707,-6.5796,-6.5767,-6.58,-6.5827,-6.583,-6.5836,-6.5821,-6.5847,-6.5906,-6.5912,-6.5845,-6.5844,-6.5843,0,-6.5069,-6.5177,-6.5249,-6.5282,-6.5373,-6.5405,-6.5444,-6.5508,-6.5548,-6.5609,-6.5636,-6.5702,-6.5738,-6.5789,-6.5833,-6.582,-6.5917,-6.5909,-6.5938,-6.5936,-6.5954,-6.5952,-6.6016,-6.5979,-6.5979,-6.5979,-6.5979,0,-6.5121,-6.5179,-6.5254,-6.5297,-6.5363,-6.5412,-6.5475,-6.5516,-6.5573,-6.5624,-6.5657,-6.5704,-6.576,-6.5815,-6.585,-6.5917,-6.5933,-6.5954,-6.5962,-6.595,-6.5947,-6.597,-6.5967,-6.5981,-6.5981,-6.598,-6.598,0,-6.514,-6.5193,-6.5273,-6.5354,-6.5376,-6.542,-6.5489,-6.5532,-6.5573,-6.5638,-6.5656,-6.5719,-6.5785,-6.5835,-6.592,-6.5943,-6.6014,-6.6024,-6.5993,-6.5996,-6.6022,-6.6018,-6.6101,-6.6114,-6.6071,-6.6071,-6.6071,0,-6.5169,-6.5214,-6.5301,-6.5339,-6.5378,-6.5438,-6.5481,-6.5531,-6.5574,-6.5651,-6.5685,-6.5754,-6.5811,-6.5914,-6.5967,-6.6032,-6.6042,-6.6067,-6.6052,-6.6038,-6.604,-6.6036,-6.604,-6.6068,-6.6068,-6.6068,-6.6069,0,-6.5214,-6.5239,-6.5299,-6.5369,-6.5418,-6.5475,-6.5533,-6.5561,-6.5622,-6.5668,-6.5737,-6.5782,-6.587,-6.5937,-6.6008,-6.6047,-6.6067,-6.6074,-6.6083,-6.607,-6.6049,-6.6059,-6.5996,-6.6071,-6.607,-6.607,-6.607,-6.607,-6.5238,-6.5279,-6.5347,-6.5413,-6.5462,-6.5515,-6.556,-6.5607,-6.5666,-6.5742,-6.5769,-6.5839,-6.5903,-6.6001,-6.6041,-6.6096,-6.6096,-6.611,-6.6114,-6.6116,-6.6114,-6.6043,-6.6109,-6.6109,-6.6109,-6.6109,-6.6109,0,-6.5283,-6.5329,-6.5389,-6.5469,-6.5521,-6.5539,-6.5604,-6.5645,-6.5707,-6.5766,-6.5822,-6.5901,-6.5967,-6.6026,-6.6094,-6.6127,-6.6138,-6.6143,-6.6139,-6.6148,-6.6111,-6.6095,-6.6132,-6.6132,-6.6132,-6.6132,-6.6132,-6.6132,-6.5312,-6.5384,-6.5416,-6.5512,-6.5557,-6.5627,-6.5662,-6.5711,-6.5758,-6.5845,-6.5901,-6.594,-6.5998,-6.6071,-6.6132,-6.6148,-6.617,-6.6172,-6.619,-6.6154,-6.615,-6.6148,-6.6132,-6.6177,-6.6177,-6.6222,-6.6222,-6.6222]},{"header":{"parameterUnit":"m.s-1","parameterCategory":1,"la1":30.2991,"la2":30.254,"lo1":-89.0895,"lo2":-89.0444,"dy":0.0017,"dx":0.0017,"nx":28,"ny":28,"refTime":"2024-04-10T09:00:00:Z","depth":0,"parameterNumber":3,"parameterNumberName":"V-component_of_WINDS"},"data":[0,0,0,0,0,0,0,0,0,0,0,0,0,0,0,0,0,0,0,0,0,0,0,0,0,0,0,0,0,0,0,0,0,0,0,0,0,0,0,0,0,0,0,0,0,0,0,0,0,0,0,0,0,0,0,0,0,0,9.6888,9.6889,0,9.6918,9.6918,9.6919,9.6815,9.6812,9.6809,9.6806,9.6833,9.6836,9.684,0,0,0,0,0,0,0,0,0,0,0,0,0,9.674,9.6743,9.6888,9.6889,9.6889,9.6918,9.6918,9.6919,9.6815,9.6812,9.6808,9.6804,9.6831,9.6836,9.684,0,0,0,0,0,0,0,0,0,0,0,0,0,9.679,9.6744,9.6888,9.6841,9.6837,9.6918,9.6919,9.6919,9.6816,9.6811,9.6807,9.6802,9.683,9.6835,9.6841,9.6967,0,0,9.6857,9.6859,0,0,0,0,0,0,0,0,9.6788,9.6796,9.6848,9.6844,9.684,9.6858,9.6876,9.6935,9.6817,9.6824,9.6806,9.68,9.6845,9.6848,9.6864,9.6969,9.697,9.6858,9.6861,9.6863,9.6865,0,0,0,0,0,0,0,9.6784,9.6794,9.69,9.6848,9.6844,9.6818,9.682,9.6887,9.686,9.6823,9.6816,9.6821,9.6842,9.6859,9.6864,9.697,9.6857,9.6862,9.6866,9.6868,9.7182,9.7187,0,0,0,0,0,0,9.6787,9.6792,9.6899,9.6901,9.6802,9.6824,9.6826,9.6857,9.6859,9.6855,9.6825,9.6816,9.6852,9.6858,9.6865,9.7014,9.6863,9.6868,9.6871,9.7177,9.7183,9.7189,0,0,0,0,0,0,9.6785,9.6798,9.6898,9.6844,9.6855,9.6832,9.6867,9.686,9.6877,9.686,9.6855,9.6848,9.6849,9.6857,9.6943,9.7014,9.6871,9.6876,9.7171,9.7179,9.7186,9.7315,0,0,0,0,0,0,9.6781,9.6797,9.6846,9.6846,9.6858,9.6977,9.6871,9.6864,9.6888,9.6876,9.688,9.6877,9.6846,9.6936,9.6949,9.7019,9.688,9.7165,9.7175,9.7184,9.7304,9.7326,9.7345,0,0,0,0,0,9.6776,9.6879,9.6849,9.6862,9.6918,9.6981,9.6988,9.6951,9.6894,9.6942,9.6931,9.6876,9.7004,9.6946,9.6959,9.7032,9.716,9.7172,9.7183,9.7295,9.7322,9.7344,0,0,0,0,0,0,9.6885,9.6878,9.6844,9.6951,9.6968,9.6964,9.7023,9.698,9.7012,9.7,9.6953,9.6955,9.705,9.7049,9.6984,9.7156,9.7072,9.7087,9.7153,9.7178,9.7198,9.7196,9.6884,0,0,0,0,0,9.6922,9.6975,9.6965,9.7061,9.7071,9.7046,9.7072,9.7043,9.7058,9.7064,9.7059,9.7075,9.7118,9.7148,9.7187,9.7304,9.7304,9.7361,9.7381,9.7398,9.7411,9.7474,9.75,9.7227,9.7227,9.7226,0,0,9.6998,9.7001,9.7037,9.7083,9.7092,9.7148,9.7053,9.7114,9.7155,9.7072,9.7154,9.7152,9.7166,9.7269,9.7314,9.7272,9.7487,9.7412,9.7426,9.743,9.7489,9.7515,9.7538,9.7234,9.7233,9.7232,0,0,9.7165,9.7173,9.7254,9.7266,9.7283,9.7266,9.7286,9.7289,9.7285,9.7367,9.7307,9.7354,9.743,9.7443,9.746,9.7636,9.7588,9.765,9.7756,9.7818,9.784,9.7859,9.7923,9.7946,9.7664,9.7664,9.7664,0,9.7257,9.7339,9.7301,9.7368,9.7391,9.7321,9.7403,9.7416,9.7444,9.7461,9.7414,9.751,9.7514,9.762,9.7664,9.7679,9.7701,9.7649,9.784,9.7859,9.7876,9.7936,9.796,9.7672,9.7671,9.767,9.7669,0,9.7452,9.7511,9.7574,9.7606,9.7635,9.7709,9.7682,9.7717,9.7686,9.7674,9.776,9.7763,9.7803,9.7826,9.7795,9.7928,9.7902,9.7848,9.7763,9.791,9.7966,9.7989,9.7682,9.768,9.7677,9.7676,0,0,9.7687,9.7699,9.7723,9.7738,9.7752,9.7796,9.7868,9.7908,9.794,9.7962,9.8021,9.8089,9.804,9.8059,9.803,9.8085,9.8226,9.8024,9.8024,9.8062,9.8375,9.8415,9.8443,9.8194,9.8199,9.8202,9.8374,0,9.7852,9.7977,9.7946,9.8069,9.8123,9.8059,9.8121,9.8137,9.8129,9.8173,9.8163,9.8212,9.8144,9.8155,9.8207,9.8198,9.8288,9.8185,9.8249,9.8251,9.8248,9.8472,9.8514,9.8676,9.8395,9.8399,9.8401,0,9.8061,9.8095,9.8224,9.8233,9.8254,9.8311,9.8347,9.839,9.8407,9.8397,9.8421,9.8381,9.8452,9.8367,9.8465,9.8396,9.842,9.842,9.8425,9.843,9.8335,9.8483,9.8726,9.8751,9.8435,9.8433,9.843,0,9.8221,9.8298,9.8386,9.84,9.8412,9.8454,9.846,9.8473,9.85,9.8532,9.8549,9.8588,9.8609,9.864,9.8612,9.8553,9.8715,9.8627,9.8709,9.871,9.8745,9.8743,9.8997,9.8761,9.876,9.876,9.8759,0,9.8409,9.8491,9.8459,9.8513,9.8603,9.8567,9.8657,9.8656,9.8668,9.8721,9.8667,9.8718,9.8678,9.8725,9.8703,9.8788,9.8798,9.8792,9.8785,9.8797,9.8798,9.8812,9.88,9.8766,9.8765,9.8764,9.8763,0,9.8602,9.8584,9.8676,9.8681,9.8684,9.8751,9.8754,9.8804,9.8793,9.8861,9.8874,9.8857,9.891,9.8885,9.894,9.8926,9.9035,9.9013,9.903,9.9025,9.9108,9.9101,9.938,9.9415,9.9156,9.9158,9.916,0,9.8724,9.8786,9.8798,9.8831,9.8842,9.8895,9.8923,9.889,9.8922,9.8948,9.8995,9.9044,9.9081,9.9169,9.9161,9.9203,9.9182,9.9277,9.9187,9.9198,9.9184,9.9181,9.9188,9.9294,9.9297,9.93,9.9302,0,9.8941,9.893,9.8974,9.9017,9.9053,9.9084,9.911,9.9139,9.9107,9.9146,9.9201,9.923,9.9288,9.9337,9.9375,9.938,9.9337,9.933,9.9351,9.9364,9.9372,9.937,9.908,9.9324,9.9321,9.932,9.9319,9.9318,9.9103,9.9156,9.9174,9.9226,9.9243,9.9269,9.9318,9.9314,9.9359,9.9405,9.9382,9.9447,9.9463,9.951,9.9522,9.9571,9.9534,9.9564,9.9572,9.958,9.9592,9.9365,9.9578,9.9577,9.9577,9.9576,9.9576,0,9.9319,9.9328,9.9376,9.9416,9.9457,9.9414,9.9442,9.9479,9.9536,9.9557,9.9596,9.9659,9.9708,9.9704,9.9749,9.9789,9.9771,9.9802,9.9799,9.9801,9.9622,9.96,9.9817,9.9817,9.9817,9.9817,9.9817,9.9817,9.9436,9.9524,9.9516,9.9612,9.962,9.9684,9.9704,9.9728,9.9745,9.9819,9.986,9.9858,9.9869,9.9915,9.9958,9.9955,9.9974,10.0014,10.0005,9.9837,9.9814,9.9791,9.977,10.0018,10.0019,10.0179,10.0181,10.0182]}]]